Temp
-9 -9 -8 -8 -8 -7 -7 -8 -8 -8 -6 -7 -7 -7 -7 -7 -6 -6 -6 -6 -5 -5 -6 -6 -6 -6 -6 -5 -5 -5 -5 -5 -5 -4 -4 -4 -4 -4 -4 -4 -4 -4 -4 -5 -5 -5 -5 -5 -5
-9 -9 -8 -8 -8 -7 -7 -8 -7 -8 -7 -8 -8 -7 -7 -7 -7 -7 -6 -6 -6 -5 -6 -7 -7 -6 -6 -6 -6 -5 -5 -5 -5 -5 -5 -4 -4 -4 -4 -5 -5 -5 -5 -5 -5 -5 -5 -5 -5
-9 -10 -9 -9 -8 -8 -7 -7 -8 -8 -8 -8 -8 -8 -7 -7 -7 -7 -7 -6 -6 -6 -6 -7 -7 -7 -7 -6 -6 -6 -5 -6 -6 -5 -5 -5 -5 -5 -5 -6 -6 -6 -6 -6 -6 -6 -6 -5 -5
-10 -9 -9 -9 -8 -8 -8 -7 -10 -9 -8 -8 -8 -7 -7 -7 -7 -7 -7 -6 -6 -6 -6 -7 -8 -8 -7 -7 -7 -6 -7 -6 -6 -6 -6 -6 -6 -6 -6 -6 -7 -7 -7 -7 -7 -6 -6 -6 -6
-10 -9 -10 -9 -8 -9 -9 -9 -10 -10 -9 -8 -8 -8 -7 -7 -7 -7 -7 -7 -7 -7 -7 -8 -8 -7 -7 -7 -7 -7 -7 -7 -8 -8 -8 -7 -7 -7 -7 -7 -7 -7 -7 -7 -7 -7 -7 -7 -7
-9 -11 -9 -9 -9 -9 -9 -10 -11 -10 -9 -9 -8 -9 -8 -8 -7 -7 -7 -7 -7 -8 -8 -8 -8 -8 -8 -8 -7 -7 -7 -7 -8 -8 -8 -8 -8 -8 -8 -8 -8 -8 -8 -8 -8 -8 -8 -8 -8
-9 -10 -9 -9 -9 -10 -10 -9 -11 -9 -9 -10 -10 -9 -9 -9 -9 -8 -8 -8 -8 -8 -8 -8 -8 -8 -8 -8 -8 -8 -8 -8 -8 -8 -8 -8 -8 -8 -8 -8 -8 -8 -8 -8 -8 -8 -8 -8 -8
-9 -10 -9 -9 -9 -10 -9 -10 -10 -10 -10 -10 -10 -10 -10 -10 -9 -9 -8 -9 -9 -8 -8 -8 -8 -9 -8 -8 -8 -9 -9 -9 -9 -9 -9 -9 -9 -9 -9 -9 -8 -8 -8 -8 -8 -8 -8 -8 -8
-9 -10 -9 -9 -10 -10 -9 -11 -11 -10 -10 -9 -10 -10 -10 -10 -9 -9 -8 -9 -9 -9 -9 -9 -9 -9 -9 -9 -9 -9 -9 -9 -9 -10 -10 -10 -10 -9 -9 -9 -8 -8 -8 -8 -8 -8 -8 -8 -8
-9 -10 -10 -10 -10 -10 -11 -11 -11 -10 -10 -11 -10 -10 -10 -9 -9 -9 -9 -9 -9 -8 -8 -9 -9 -9 -10 -11 -10 -10 -10 -9 -10 -10 -10 -11 -10 -10 -10 -10 -10 -10 -8 -8 -8 -8 -8 -8 -8
-11 -10 -10 -10 -9 -10 -11 -11 -10 -12 -11 -10 -11 -10 -10 -10 -10 -9 -9 -10 -8 -8 -10 -8 -9 -9 -9 -9 -9 -9 -10 -11 -10 -10 -10 -10 -10 -10 -9 -11 -11 -10 -9 -9 -8 -8 -7 -8 -8
-10 -9 -10 -9 -9 -10 -11 -11 -10 -10 -10 -10 -10 -11 -11 -11 -11 -10 -12 -8 -9 -9 -9 -9 -9 -9 -10 -9 -9 -10 -10 -10 -10 -10 -10 -10 -11 -11 -11 -11 -10 -10 -10 -10 -9 -9 -8 -8 -8
-11 -9 -9 -9 -9 -10 -10 -11 -9 -10 -10 -10 -10 -10 -10 -10 -11 -11 -10 -10 -9 -9 -9 -9 -10 -10 -10 -10 -10 -10 -10 -10 -10 -11 -11 -10 -10 -10 -10 -10 -10 -10 -10 -9 -9 -11 -8 -10 -8
-10 -10 -9 -9 -9 -10 -10 -10 -10 -10 -10 -10 -10 -10 -10 -10 -10 -11 -11 -10 -10 -10 -10 -10 -10 -10 -10 -10 -10 -10 -11 -11 -10 -11 -11 -11 -11 -11 -10 -10 -10 -10 -10 -10 -9 -9 -9 -9 -10
-9 -10 -9 -9 -9 -10 -10 -9 -10 -10 -10 -10 -10 -10 -10 -10 -10 -10 -11 -10 -10 -10 -10 -10 -10 -10 -10 -10 -10 -10 -10 -10 -11 -10 -11 -11 -11 -11 -11 -11 -11 -11 -11 -11 -10 -10 -9 -9 -9
-10 -11 -11 -11 -10 -10 -10 -12 -9 -10 -10 -10 -10 -10 -10 -10 -10 -10 -11 -10 -10 -11 -10 -11 -10 -10 -10 -11 -11 -10 -11 -10 -10 -10 -11 -11 -11 -11 -11 -11 -11 -11 -11 -11 -11 -11 -10 -10 -10
-10 -11 -11 -12 -10 -10 -10 -12 -10 -10 -10 -10 -10 -10 -10 -10 -10 -11 -11 -11 -11 -11 -11 -11 -11 -11 -11 -11 -11 -11 -11 -11 -11 -11 -11 -11 -11 -11 -11 -11 -12 -12 -12 -11 -12 -11 -11 -11 -11
-10 -11 -12 -12 -12 -10 -11 -10 -10 -10 -10 -10 -10 -10 -10 -10 -10 -10 -10 -11 -11 -11 -12 -12 -12 -12 -12 -12 -12 -12 -11 -11 -11 -11 -11 -11 -11 -11 -11 -12 -12 -13 -13 -12 -13 -13 -13 -13 -12
-10 -11 -12 -12 -10 -11 -11 -10 -9 -10 -10 -10 -10 -10 -10 -10 -10 -10 -11 -11 -11 -11 -12 -12 -12 -12 -12 -12 -13 -13 -13 -12 -12 -12 -12 -12 -12 -12 -13 -13 -13 -13 -14 -14 -14 -14 -14 -15 -14
-11 -11 -12 -12 -10 -10 -11 -10 -10 -10 -10 -11 -11 -10 -11 -11 -11 -11 -11 -11 -12 -12 -12 -13 -13 -13 -13 -13 -13 -13 -13 -14 -14 -14 -13 -13 -12 -13 -13 -13 -13 -13 -14 -14 -14 -15 -15 -15 -15
-11 -11 -11 -11 -11 -10 -11 -10 -10 -10 -10 -10 -11 -11 -11 -12 -12 -12 -12 -12 -13 -13 -13 -13 -13 -13 -14 -14 -14 -14 -14 -14 -14 -14 -14 -14 -13 -14 -14 -14 -14 -14 -14 -15 -14 -15 -15 -15 -15
-11 -10 -11 -10 -11 -11 -11 -11 -12 -10 -11 -11 -11 -12 -12 -12 -12 -12 -13 -13 -13 -13 -13 -14 -14 -14 -14 -15 -15 -15 -15 -15 -15 -15 -16 -15 -15 -14 -15 -14 -14 -14 -15 -15 -15 -15 -15 -15 -15
-11 -11 -10 -10 -10 -10 -11 -13 -13 -12 -12 -12 -11 -12 -12 -13 -13 -13 -13 -14 -14 -14 -14 -14 -14 -15 -15 -15 -16 -16 -16 -16 -16 -16 -16 -16 -16 -15 -15 -15 -15 -15 -14 -15 -15 -15 -15 -15 -15
-11 -11 -11 -11 -11 -11 -13 -13 -13 -14 -12 -14 -13 -12 -12 -13 -13 -13 -14 -14 -15 -15 -15 -15 -16 -16 -16 -16 -16 -16 -16 -16 -16 -16 -16 -16 -16 -16 -16 -16 -16 -15 -15 -15 -15 -15 -15 -15 -15
-12 -11 -11 -12 -13 -13 -13 -13 -14 -12 -13 -14 -14 -14 -13 -13 -13 -14 -14 -14 -15 -15 -15 -16 -17 -17 -17 -17 -17 -17 -17 -17 -17 -17 -17 -17 -17 -17 -17 -16 -16 -15 -15 -16 -16 -15 -15 -15 -15
-11 -11 -11 -11 -13 -13 -13 -14 -15 -13 -13 -13 -14 -14 -14 -14 -14 -14 -14 -14 -15 -16 -17 -17 -18 -18 -19 -19 -19 -19 -18 -19 -19 -19 -18 -18 -18 -18 -18 -17 -17 -16 -16 -16 -16 -16 -16 -16 -15
-11 -12 -12 -12 -12 -12 -13 -14 -15 -13 -14 -14 -14 -14 -14 -14 -15 -15 -15 -16 -17 -18 -19 -19 -19 -20 -20 -20 -20 -19 -19 -20 -20 -19 -19 -19 -19 -19 -18 -18 -17 -17 -17 -17 -17 -16 -16 -16 -16
-12 -12 -12 -12 -12 -13 -14 -14 -16 -15 -15 -15 -15 -15 -15 -15 -15 -15 -16 -17 -18 -19 -19 -20 -20 -20 -19 -19 -19 -19 -19 -19 -19 -20 -20 -20 -19 -19 -19 -19 -19 -18 -19 -19 -18 -17 -17 -17 -17
-12 -12 -12 -13 -13 -13 -13 -15 -14 -15 -15 -15 -15 -15 -15 -15 -15 -16 -17 -19 -19 -19 -19 -19 -19 -19 -19 -18 -18 -18 -18 -19 -19 -19 -19 -19 -19 -19 -19 -19 -18 -18 -18 -19 -18 -18 -18 -17 -18
-13 -13 -13 -13 -14 -14 -14 -14 -14 -15 -15 -15 -15 -15 -15 -15 -16 -17 -19 -19 -19 -19 -19 -19 -19 -18 -18 -18 -17 -18 -18 -18 -18 -18 -18 -18 -18 -18 -18 -18 -18 -18 -18 -18 -18 -18 -18 -17 -17
Height
5917 5917 5923 5926 5929 5927 5923 5924 5924 5913 5907 5915 5917 5918 5918 5917 5917 5919 5915 5914 5913 5912 5911 5912 5912 5913 5913 5913 5912 5914 5915 5916 5917 5917 5917 5918 5917 5917 5917 5917 5917 5918 5918 5918 5918 5918 5919 5919 5919
5916 5917 5920 5923 5925 5923 5922 5921 5921 5908 5910 5913 5915 5916 5916 5915 5914 5914 5913 5912 5910 5910 5909 5909 5911 5911 5911 5913 5911 5911 5912 5912 5915 5916 5916 5916 5916 5916 5916 5916 5916 5917 5917 5918 5918 5918 5919 5918 5918
5914 5916 5921 5923 5925 5922 5923 5916 5914 5912 5913 5914 5913 5914 5913 5913 5912 5911 5911 5909 5908 5907 5907 5906 5908 5908 5909 5910 5910 5910 5910 5910 5911 5913 5913 5913 5914 5915 5915 5914 5915 5915 5915 5916 5917 5917 5918 5917 5916
5914 5917 5922 5925 5921 5923 5914 5912 5913 5913 5913 5915 5915 5909 5911 5911 5910 5909 5907 5906 5905 5905 5904 5904 5904 5905 5906 5906 5907 5908 5907 5908 5909 5909 5911 5910 5911 5911 5912 5911 5911 5911 5911 5912 5913 5913 5914 5914 5914
5913 5916 5923 5927 5921 5919 5921 5918 5914 5919 5915 5914 5914 5908 5909 5908 5906 5906 5904 5903 5903 5902 5901 5901 5903 5903 5904 5905 5904 5903 5904 5904 5906 5906 5906 5907 5907 5907 5908 5907 5908 5908 5908 5908 5909 5909 5909 5910 5910
5912 5919 5925 5927 5920 5919 5919 5915 5916 5915 5911 5911 5910 5905 5905 5903 5902 5902 5901 5900 5900 5900 5900 5899 5899 5900 5901 5901 5901 5900 5901 5900 5901 5901 5903 5902 5903 5903 5904 5904 5903 5904 5905 5905 5905 5905 5905 5906 5905
5913 5921 5927 5928 5928 5923 5918 5914 5914 5907 5908 5905 5911 5911 5901 5891 5897 5898 5898 5898 5897 5896 5896 5895 5895 5895 5896 5897 5897 5897 5898 5897 5897 5898 5899 5900 5899 5900 5900 5900 5900 5900 5901 5900 5901 5902 5901 5902 5901
5912 5920 5926 5927 5926 5921 5916 5914 5913 5911 5902 5904 5910 5900 5892 5893 5897 5897 5896 5896 5895 5893 5893 5892 5891 5891 5892 5893 5893 5893 5893 5895 5895 5895 5895 5898 5897 5897 5898 5898 5897 5897 5898 5898 5898 5898 5899 5899 5899
5914 5918 5926 5926 5924 5917 5915 5916 5911 5911 5908 5908 5905 5901 5896 5895 5896 5895 5894 5894 5893 5892 5891 5891 5890 5889 5889 5890 5890 5890 5889 5889 5888 5888 5890 5892 5892 5892 5892 5893 5893 5893 5893 5893 5893 5893 5893 5893 5894
5914 5921 5924 5918 5919 5918 5913 5914 5910 5909 5906 5904 5903 5899 5898 5897 5895 5894 5894 5894 5893 5892 5891 5888 5888 5888 5888 5889 5888 5890 5888 5887 5887 5887 5887 5885 5884 5885 5884 5886 5887 5888 5888 5889 5888 5888 5887 5886 5887
5916 5920 5913 5914 5912 5913 5911 5908 5907 5907 5903 5903 5901 5899 5898 5897 5897 5896 5895 5894 5895 5886 5885 5887 5884 5886 5886 5886 5886 5885 5884 5884 5885 5883 5884 5885 5884 5882 5881 5878 5882 5882 5881 5883 5886 5885 5884 5882 5880
5912 5909 5909 5907 5908 5908 5908 5904 5902 5902 5902 5901 5899 5899 5898 5897 5896 5895 5896 5893 5897 5875 5873 5886 5882 5883 5884 5882 5881 5880 5880 5880 5880 5879 5878 5878 5878 5877 5876 5876 5873 5873 5873 5878 5878 5867 5870 5875 5877
5909 5906 5905 5905 5905 5904 5903 5902 5900 5900 5900 5899 5898 5898 5897 5896 5895 5894 5893 5891 5891 5889 5884 5881 5879 5880 5879 5878 5876 5875 5874 5872 5872 5872 5872 5872 5870 5870 5870 5870 5868 5866 5866 5868 5869 5854 5857 5843 5863
5905 5904 5902 5902 5901 5902 5901 5900 5899 5899 5898 5897 5897 5896 5895 5894 5893 5891 5890 5887 5887 5885 5881 5879 5877 5877 5876 5874 5871 5871 5869 5868 5867 5867 5866 5865 5864 5864 5864 5863 5860 5859 5858 5857 5858 5860 5857 5860 5829
5904 5902 5901 5900 5899 5899 5899 5898 5897 5897 5896 5896 5896 5895 5893 5891 5890 5889 5886 5882 5882 5879 5876 5875 5872 5872 5870 5869 5866 5864 5863 5862 5860 5860 5859 5858 5857 5856 5855 5853 5851 5850 5850 5849 5847 5846 5846 5847 5844
5902 5904 5905 5897 5898 5897 5898 5897 5895 5895 5895 5894 5893 5892 5890 5887 5886 5884 5880 5877 5876 5871 5871 5868 5865 5863 5861 5859 5857 5855 5854 5852 5851 5849 5848 5847 5846 5846 5845 5844 5843 5842 5841 5840 5839 5838 5837 5836 5835
5901 5905 5906 5898 5897 5894 5895 5894 5892 5890 5888 5886 5885 5883 5881 5879 5877 5875 5872 5868 5866 5864 5861 5858 5856 5853 5852 5850 5848 5845 5843 5841 5839 5837 5835 5836 5835 5835 5834 5834 5833 5831 5831 5830 5830 5829 5829 5828 5828
5908 5904 5901 5899 5891 5893 5892 5889 5887 5886 5884 5882 5878 5875 5872 5869 5867 5864 5860 5857 5855 5853 5850 5848 5845 5842 5839 5838 5836 5834 5832 5830 5828 5825 5825 5824 5822 5822 5822 5822 5823 5821 5820 5820 5819 5819 5819 5819 5819
5897 5896 5896 5895 5888 5889 5888 5885 5883 5882 5879 5876 5872 5869 5865 5862 5859 5855 5852 5848 5843 5841 5838 5835 5833 5831 5828 5824 5823 5820 5819 5818 5815 5813 5814 5812 5810 5808 5807 5806 5808 5809 5808 5808 5809 5809 5810 5809 5807
5891 5891 5892 5888 5884 5885 5883 5881 5878 5876 5874 5871 5866 5862 5857 5852 5849 5845 5841 5836 5833 5829 5826 5822 5819 5817 5814 5810 5809 5807 5803 5801 5800 5798 5798 5796 5795 5795 5792 5792 5792 5794 5795 5796 5798 5798 5799 5799 5797
5887 5885 5885 5884 5880 5879 5878 5876 5870 5871 5868 5864 5861 5854 5849 5845 5838 5834 5830 5826 5820 5816 5812 5809 5805 5803 5801 5797 5794 5792 5789 5787 5784 5782 5783 5782 5782 5781 5780 5779 5779 5780 5781 5781 5784 5786 5787 5787 5787
5882 5880 5879 5878 5877 5876 5871 5872 5864 5858 5861 5857 5853 5847 5841 5834 5828 5823 5818 5814 5808 5803 5798 5795 5791 5788 5785 5782 5779 5777 5773 5772 5770 5769 5767 5767 5767 5766 5766 5766 5765 5766 5768 5766 5767 5769 5774 5774 5777
5876 5875 5874 5873 5871 5869 5868 5865 5863 5856 5852 5845 5840 5839 5833 5826 5818 5811 5806 5799 5794 5788 5782 5778 5775 5772 5768 5764 5761 5760 5757 5755 5754 5752 5751 5751 5749 5748 5750 5750 5750 5752 5752 5752 5752 5753 5757 5759 5762
5870 5869 5868 5866 5865 5864 5863 5863 5862 5853 5845 5840 5831 5826 5821 5816 5809 5799 5793 5786 5779 5773 5767 5762 5758 5753 5750 5746 5743 5741 5739 5737 5735 5733 5733 5732 5732 5730 5732 5732 5733 5738 5737 5736 5735 5738 5741 5743 5745
5866 5865 5865 5864 5864 5864 5856 5853 5853 5844 5842 5836 5828 5820 5811 5805 5797 5789 5780 5771 5764 5756 5749 5744 5739 5736 5732 5728 5725 5722 5719 5717 5716 5715 5714 5714 5714 5714 5714 5715 5716 5718 5718 5721 5722 5723 5726 5728 5730
5862 5861 5860 5858 5859 5858 5852 5846 5838 5834 5830 5824 5817 5810 5801 5791 5783 5774 5764 5755 5746 5737 5731 5724 5719 5715 5712 5710 5708 5706 5703 5700 5697 5696 5696 5696 5696 5696 5697 5697 5698 5700 5700 5701 5702 5704 5706 5708 5712
5858 5856 5855 5852 5850 5846 5849 5843 5831 5824 5817 5810 5800 5792 5784 5775 5766 5756 5747 5736 5726 5719 5712 5706 5701 5696 5694 5692 5691 5689 5686 5683 5682 5679 5678 5679 5678 5678 5678 5679 5679 5682 5683 5684 5684 5686 5689 5690 5695
5853 5851 5849 5845 5843 5841 5843 5836 5827 5821 5813 5806 5798 5788 5778 5768 5757 5742 5729 5719 5710 5703 5695 5690 5686 5681 5679 5677 5674 5672 5671 5668 5667 5666 5665 5664 5663 5663 5663 5663 5663 5664 5667 5667 5668 5669 5671 5674 5678
5848 5845 5844 5841 5838 5835 5831 5832 5818 5812 5804 5796 5785 5776 5766 5754 5740 5729 5716 5708 5698 5690 5683 5677 5672 5667 5664 5662 5660 5659 5657 5656 5654 5652 5651 5650 5649 5648 5646 5646 5647 5649 5650 5653 5652 5653 5654 5656 5660
5843 5840 5837 5833 5832 5828 5822 5820 5809 5803 5791 5780 5771 5763 5754 5742 5730 5715 5705 5696 5687 5679 5672 5666 5660 5656 5654 5651 5649 5648 5646 5645 5642 5640 5638 5636 5635 5634 5632 5632 5633 5634 5635 5637 5637 5637 5637 5639 5643
Wind_Speed
11 13 10 5 2 11 13 8 10 9 6 14 15 14 12 11 9 6 8 7 10 10 19 16 15 14 14 16 15 15 13 14 16 16 15 14 12 11 10 9 9 8 8 7 7 6 6 6 7
15 14 10 5 8 12 8 14 15 15 12 10 13 12 12 11 12 12 13 12 15 9 17 22 21 19 18 18 17 16 16 15 16 16 15 14 13 13 12 11 11 10 10 10 9 9 8 8 8
12 11 6 7 11 12 21 4 3 15 12 12 17 15 15 17 18 16 16 18 14 9 9 14 21 22 20 18 18 17 17 15 16 17 17 16 15 14 13 11 10 10 10 11 11 12 11 10 10
10 8 9 5 26 21 4 9 6 14 21 18 12 17 18 17 19 18 19 15 12 12 10 13 16 19 19 19 19 20 18 18 18 17 17 16 15 14 14 13 12 12 12 12 13 13 13 12 12
8 5 4 7 14 6 15 17 9 12 21 15 16 21 15 13 13 14 16 13 12 13 11 13 16 18 18 20 22 21 20 20 19 18 17 17 16 16 15 14 13 13 12 12 13 12 11 11 11
2 5 0 9 18 8 14 8 7 8 16 13 18 17 21 18 20 16 15 15 14 14 18 18 19 19 21 23 24 23 24 23 23 21 22 20 20 19 19 18 17 16 16 15 14 13 13 13 11
3 4 4 7 10 10 6 4 1 10 11 16 9 5 27 26 17 21 20 21 19 18 18 19 25 24 25 26 27 26 27 28 26 24 25 24 24 24 23 22 21 21 22 20 20 19 18 17 16
6 5 7 4 7 9 14 9 5 10 3 18 10 18 28 18 14 18 20 18 22 21 18 18 22 29 31 30 29 27 27 26 26 25 25 27 26 25 26 26 24 25 25 24 24 24 23 22 21
3 4 3 9 4 11 16 4 10 9 16 11 8 18 22 18 12 13 16 18 22 21 22 21 22 26 32 30 27 31 32 33 34 33 32 31 32 30 28 28 28 31 30 29 28 28 27 26 26
1 1 11 18 9 10 8 5 14 10 13 14 12 17 14 12 10 9 10 12 17 22 22 21 19 17 21 30 29 31 36 36 37 35 36 39 34 33 34 34 36 35 35 34 34 34 33 32 31
4 6 28 17 19 14 11 16 14 8 15 10 10 12 9 8 6 8 9 11 14 23 20 21 20 22 25 26 29 30 34 36 37 37 36 38 47 43 43 35 37 40 41 40 38 40 40 39 36
11 18 19 18 13 15 13 14 10 10 12 8 8 7 6 7 8 8 6 11 13 21 17 20 20 22 23 25 27 29 30 32 33 35 35 38 39 37 38 38 43 40 45 43 46 36 45 47 44
6 10 13 12 11 11 9 11 7 7 8 9 11 11 11 10 11 15 16 20 20 23 26 26 26 27 28 30 31 31 33 33 33 35 37 38 37 36 36 37 40 41 40 42 40 47 26 30 42
10 11 11 10 12 9 10 8 9 8 10 10 12 13 14 15 17 20 24 28 25 28 30 32 34 34 35 36 38 37 37 37 38 38 39 40 39 39 38 39 39 40 42 43 46 47 48 44 25
11 11 13 11 11 10 9 13 9 10 11 12 14 16 19 23 25 26 31 35 33 37 38 39 41 40 42 42 45 45 45 45 45 45 45 44 44 43 43 42 43 44 45 46 47 50 52 51 53
10 6 6 24 12 12 10 15 11 13 14 15 18 21 24 27 29 32 36 39 37 42 41 43 45 45 45 44 47 49 49 50 51 52 51 50 50 49 48 47 48 48 47 48 49 51 52 53 52
12 5 8 25 18 19 16 17 15 19 20 23 25 28 31 32 33 36 38 40 41 42 44 46 47 49 48 49 50 52 53 55 56 56 57 55 56 56 54 52 50 52 51 50 50 51 51 52 54
14 9 15 13 26 16 17 23 20 22 24 27 31 34 35 36 37 39 40 41 42 42 44 46 49 51 53 53 55 57 58 60 60 61 62 61 62 60 58 55 52 52 53 53 51 50 50 53 53
22 23 16 16 25 19 21 25 24 24 27 30 34 34 35 37 39 40 41 43 44 44 45 47 48 51 54 56 56 58 59 61 63 64 64 63 63 64 62 61 58 51 51 46 48 47 45 42 48
19 20 14 21 25 17 23 24 26 29 27 29 33 36 38 42 42 43 44 45 46 47 48 49 50 51 53 57 58 59 61 62 62 64 63 64 64 64 65 64 63 58 53 53 47 45 48 48 44
16 19 20 20 24 20 23 26 33 28 29 30 32 37 41 41 43 43 44 44 46 47 49 49 51 53 55 58 60 62 63 63 65 66 66 65 65 65 64 64 63 61 58 55 53 46 48 50 49
15 16 18 19 20 19 25 23 30 38 30 31 35 38 42 43 45 46 45 46 47 48 49 49 51 52 53 57 60 62 65 65 67 68 68 68 68 66 65 65 64 64 62 64 61 59 52 51 53
19 15 16 18 20 23 21 21 18 33 32 41 44 39 41 44 46 47 47 49 49 50 52 52 52 52 54 56 59 61 65 68 69 71 71 71 73 72 69 69 69 68 66 67 68 63 62 59 57
16 17 19 21 22 19 14 12 16 24 35 36 46 47 46 45 48 53 53 53 53 54 53 54 54 56 57 59 60 61 62 66 69 73 75 76 75 76 72 72 71 66 68 66 69 74 66 64 64
19 19 14 13 12 11 26 30 19 30 30 36 40 44 49 51 53 56 57 59 59 58 57 55 55 56 57 60 62 65 66 68 68 70 72 75 77 80 80 79 74 74 75 75 74 73 74 71 71
18 17 18 17 12 15 24 24 24 40 39 41 44 46 50 54 59 61 63 64 63 61 58 57 55 55 54 55 56 59 62 64 67 68 69 73 74 75 76 78 79 81 82 80 78 76 74 74 70
18 18 20 21 21 24 14 17 30 40 45 48 54 57 59 64 65 68 70 65 64 59 55 52 51 51 50 51 51 53 55 57 58 60 62 61 63 65 68 70 74 76 76 77 79 82 82 82 76
19 21 22 24 24 23 14 19 22 37 42 46 48 53 61 65 67 69 69 62 60 55 53 50 49 50 47 47 48 49 50 50 51 52 53 54 57 59 60 60 60 60 61 61 63 68 71 75 72
21 23 21 21 22 24 29 19 38 40 46 49 54 59 65 70 71 68 62 56 55 52 47 45 45 43 41 40 38 38 38 41 44 47 47 48 49 50 53 53 52 51 52 55 58 59 62 62 63
22 23 24 26 25 26 31 33 43 45 52 58 63 66 69 71 70 62 53 53 50 48 44 40 39 37 34 30 28 28 31 34 37 38 38 38 39 40 45 50 53 54 55 57 62 64 67 68 66
Wind_Direction
259 277 282 274 217 259 201 214 248 288 244 288 298 303 316 322 333 323 322 333 341 272 242 229 245 249 235 230 224 228 227 234 237 233 233 233 231 232 235 237 238 240 239 237 235 231 234 228 227
254 259 259 315 320 159 192 245 263 289 291 290 296 295 298 306 306 313 313 307 321 316 246 247 235 239 239 241 232 231 225 223 238 242 241 244 247 247 246 246 248 254 259 261 260 255 251 251 249
267 272 303 46 308 292 260 355 68 304 322 297 288 286 283 290 295 293 297 301 304 299 255 238 243 234 231 237 243 236 240 236 236 242 242 243 247 253 252 253 256 257 259 264 266 265 261 255 253
278 305 56 40 240 232 305 250 278 319 304 279 334 294 281 284 283 280 288 288 281 283 230 233 229 224 226 232 232 231 230 236 239 241 248 246 245 245 247 245 247 248 249 251 254 255 259 261 261
288 31 334 276 311 328 274 245 290 291 275 281 294 277 295 280 289 285 276 271 262 257 235 221 222 222 229 235 233 231 229 228 234 235 237 238 237 231 235 233 235 238 239 240 246 249 252 257 261
289 11 243 255 245 255 283 283 257 254 265 274 273 288 276 268 269 264 257 263 252 234 237 227 224 226 228 230 231 229 226 225 226 229 233 230 234 230 231 230 232 235 238 238 238 239 240 244 246
115 177 307 260 256 275 276 294 230 298 277 229 255 277 278 253 258 246 248 257 248 241 239 245 233 229 230 231 227 225 231 228 229 232 236 238 235 238 239 239 239 241 242 242 244 242 238 241 241
159 216 243 275 265 243 284 312 308 288 63 317 265 256 259 347 275 267 259 256 253 251 246 258 252 236 231 229 227 233 232 234 236 237 241 246 246 246 249 252 252 256 256 255 255 255 255 250 248
102 130 250 250 244 243 270 302 295 300 293 287 275 268 294 311 281 273 259 257 256 256 257 256 263 250 236 232 233 237 236 235 238 237 236 242 248 247 246 253 258 258 257 258 258 259 258 258 257
262 21 238 220 212 259 255 271 275 302 295 297 293 271 285 303 294 284 280 275 265 264 267 265 268 269 264 251 249 264 251 247 248 245 244 239 236 241 249 257 258 260 261 261 262 263 262 263 264
280 215 239 246 254 237 257 290 270 249 256 289 274 298 306 307 291 296 290 282 282 272 258 265 267 280 280 273 265 265 265 268 272 276 264 268 255 261 271 262 264 265 265 265 268 269 266 265 262
237 245 258 275 271 252 253 258 265 246 268 265 255 265 292 301 307 294 277 292 281 296 299 288 289 286 284 282 281 281 277 271 272 273 276 278 278 280 282 285 274 280 273 268 263 267 263 268 266
240 270 261 270 264 254 259 258 261 245 259 253 251 256 261 270 281 280 278 282 287 282 291 292 288 286 285 286 283 282 281 281 279 277 275 275 275 275 276 273 275 281 277 272 269 282 273 285 269
261 267 271 275 281 266 269 261 275 268 265 259 260 271 274 273 276 284 288 286 283 285 284 284 283 280 280 278 278 278 278 276 278 277 276 276 276 276 274 275 276 276 277 276 273 269 271 271 280
264 281 280 279 283 287 294 286 281 290 293 289 278 277 281 279 280 282 283 281 286 284 282 282 281 279 276 276 277 276 275 276 275 274 274 273 274 275 275 275 275 275 275 275 276 276 276 273 271
280 240 284 281 290 274 278 275 298 295 291 287 282 281 280 281 277 278 279 280 279 280 278 278 277 275 274 271 270 272 273 272 273 275 275 275 274 273 273 273 273 274 274 274 272 272 273 276 279
303 224 247 274 271 283 290 277 310 303 305 304 301 297 293 291 287 283 280 278 278 274 275 274 273 273 272 270 269 269 269 269 270 271 271 273 274 274 273 274 275 276 275 274 274 273 273 272 272
266 264 257 246 281 290 284 282 295 299 301 302 303 302 300 300 297 294 290 286 283 278 274 271 271 271 271 271 271 269 269 269 268 269 270 271 272 273 274 274 274 274 276 275 275 275 276 275 275
233 251 256 260 278 282 278 285 294 298 299 301 297 297 298 298 295 293 291 289 287 284 281 276 273 269 268 269 269 268 270 271 271 270 271 272 272 273 276 276 275 270 268 268 268 268 268 272 276
259 258 264 262 280 281 283 291 295 294 300 298 301 303 300 298 296 294 292 290 287 284 280 277 274 272 269 268 270 269 266 267 267 269 266 267 268 270 271 271 273 272 269 265 260 263 263 262 269
266 258 248 268 276 291 279 290 295 299 304 300 301 300 301 300 298 298 296 292 288 285 283 280 277 273 269 266 267 267 267 267 267 267 268 267 266 268 270 271 272 272 274 274 267 267 265 262 267
264 266 265 270 274 284 289 295 293 300 309 305 307 308 307 306 303 301 299 297 294 290 286 281 278 276 274 271 269 267 266 266 267 268 267 268 269 265 266 268 269 268 271 275 275 275 273 270 265
267 275 276 282 289 291 288 280 285 303 307 313 310 310 308 308 309 305 303 301 297 293 291 288 284 279 275 271 267 266 266 265 264 265 266 269 269 268 267 267 266 266 271 272 273 272 273 277 274
286 287 290 289 290 294 291 250 287 286 315 317 314 314 313 313 311 308 308 304 298 294 288 285 282 279 277 273 271 268 265 263 264 263 263 264 265 267 268 267 266 266 268 271 272 268 271 277 274
282 283 287 292 280 316 277 290 285 303 315 315 316 318 316 316 315 314 311 307 302 297 293 287 280 277 274 272 271 271 269 266 262 262 263 263 264 265 263 264 266 264 267 267 267 266 270 270 270
284 284 285 287 263 270 285 299 285 308 322 321 319 318 318 320 320 317 313 308 303 299 294 288 283 280 277 273 271 271 271 271 272 270 265 264 265 265 266 266 265 264 268 268 268 268 269 269 268
282 281 290 293 298 308 308 295 309 318 325 323 324 328 327 326 323 319 314 308 305 303 298 293 287 281 279 278 277 275 272 271 270 270 269 268 268 268 267 266 267 266 266 266 267 267 267 270 270
289 293 296 303 310 314 292 313 277 319 321 322 322 323 325 324 321 318 314 311 307 304 299 296 291 287 283 279 277 275 273 273 274 273 271 270 270 270 269 268 267 265 265 266 267 268 268 268 268
291 293 294 300 301 308 310 305 308 320 319 321 326 325 323 323 324 317 313 310 306 306 304 300 297 291 287 280 276 276 277 275 275 275 274 272 271 270 270 268 267 266 263 264 266 266 265 262 263
292 294 299 302 308 319 316 323 318 319 327 332 328 325 324 323 320 318 315 309 309 308 308 307 301 295 293 288 286 285 283 282 282 281 279 275 272 270 271 270 270 270 269 266 264 265 264 264 263